Temp
18 18 17 16 15 15 15 15 16 16 16 16 17 18 18 18 19 19 19 19 19 19 19 19 18 19 18 18 17 17 16 16 16 16 15 16 17 17 17 17 18 19 19
14 16 17 17 16 15 14 15 15 15 16 16 17 17 18 19 19 19 18 18 18 18 18 18 18 18 18 17 17 16 16 16 16 16 16 16 16 17 18 18 18 18 18
11 13 14 14 15 15 14 14 15 15 16 16 16 17 18 18 18 18 18 17 17 17 17 17 17 17 17 17 17 17 17 17 16 15 16 15 16 18 18 18 18 18 18
9 10 9 10 9 9 10 13 14 14 15 16 16 16 17 17 18 18 18 17 17 17 16 16 16 16 16 17 16 17 17 16 16 15 15 16 17 17 18 17 17 17 18
8 7 7 6 7 7 7 8 10 14 15 16 16 16 16 17 17 17 17 16 16 16 16 16 16 16 16 16 16 16 16 16 16 16 15 15 15 15 14 17 15 16 17
7 7 5 5 5 5 5 6 8 10 15 16 16 16 16 16 17 16 16 16 15 14 14 14 14 14 15 14 15 15 15 15 15 15 15 16 15 15 15 15 16 16 16
7 6 5 4 3 4 4 4 6 10 13 14 15 16 16 16 16 16 15 14 14 13 13 13 13 14 14 14 15 14 14 14 14 15 14 14 14 15 15 15 15 15 16
10 8 6 4 3 4 3 3 5 6 8 11 12 12 13 14 13 13 13 12 12 12 12 12 13 13 13 14 14 14 14 14 14 14 14 14 14 14 14 14 14 13 13
10 9 8 6 3 3 2 3 4 4 5 6 7 9 10 9 10 10 10 10 10 9 10 10 11 12 13 13 13 13 13 13 13 13 13 13 13 13 13 12 13 13 14
10 9 9 6 5 4 3 3 3 3 3 4 4 4 5 6 7 7 7 7 8 8 9 9 9 10 11 11 12 12 13 13 13 13 13 13 13 13 13 13 13 13 13
11 10 9 7 6 4 5 4 4 4 3 3 3 4 4 5 5 5 5 5 5 6 7 7 8 8 9 9 9 10 10 9 10 11 10 12 12 12 12 13 13 13 13
12 11 9 8 7 7 6 7 7 6 5 4 4 4 4 3 4 4 4 5 6 6 6 7 7 7 7 7 8 7 7 7 8 8 9 9 8 9 9 9 10 11 12
12 11 11 10 9 8 7 7 7 6 6 6 6 6 6 6 6 6 6 6 6 6 5 6 6 6 6 6 6 6 6 7 7 7 7 7 7 7 7 8 8 8 9
11 10 10 9 8 7 7 7 6 6 6 6 6 5 5 5 5 5 5 4 5 4 4 5 5 5 5 5 3 4 4 5 6 6 6 6 7 7 7 6 6 6 7
13 12 11 10 8 8 7 6 5 5 4 5 5 4 4 4 4 4 4 4 3 3 3 4 4 4 4 4 2 2 3 4 4 5 5 6 6 5 5 5 5 5 6
14 13 11 10 9 8 7 6 5 5 5 4 4 4 4 3 3 3 3 3 3 3 3 3 3 3 3 2 1 1 2 3 3 4 4 4 4 4 4 4 4 4 4
15 13 11 10 10 8 7 7 6 5 5 4 4 3 3 3 3 2 3 3 3 3 3 3 3 3 3 2 1 1 1 2 3 3 3 3 3 3 4 4 4 4 4
15 13 12 10 9 7 7 6 5 5 4 4 4 3 3 3 3 2 2 2 2 3 3 3 2 2 3 2 1 1 1 1 2 2 2 2 2 2 2 2 2 3 3
15 14 12 11 9 8 6 5 5 5 4 4 4 3 2 2 3 2 2 2 2 2 2 2 2 2 2 2 1 1 1 1 1 1 1 1 1 2 2 2 2 2 3
14 12 11 9 8 8 6 5 5 5 5 4 3 2 2 2 2 2 2 2 1 2 2 2 2 2 2 2 1 0 0 0 0 1 1 1 1 1 1 1 1 1 1
12 11 9 9 8 7 6 5 5 5 4 2 2 2 1 1 1 1 1 1 1 2 2 2 2 2 1 1 0 -0 -0 0 -0 0 1 1 1 1 1 2 1 1 1
10 9 9 8 8 6 5 5 5 4 3 2 2 1 1 1 1 1 1 1 2 2 2 2 2 1 1 -0 -0 -0 -0 -0 -0 -0 0 0 1 1 1 1 2 2 2
9 8 8 8 7 5 4 4 4 3 2 2 2 2 2 2 1 1 1 1 1 1 1 1 0 0 -1 -1 -1 -1 -1 -1 -1 -0 -0 -0 0 1 1 1 1 2 2
10 8 7 7 6 5 4 3 4 2 2 2 2 2 1 1 1 1 1 1 1 0 -0 -1 -1 -1 -2 -1 -2 -2 -2 -1 -1 -1 -1 -0 0 1 1 1 1 1 1
9 8 8 7 7 6 4 3 2 2 1 1 1 1 1 1 0 0 0 -0 -0 -1 -2 -2 -2 -2 -2 -2 -2 -2 -2 -2 -2 -1 -1 -1 -1 1 1 1 0 1 1
9 8 7 6 6 5 4 3 2 1 1 1 1 1 0 0 -0 -0 -0 -0 -1 -2 -2 -2 -2 -3 -3 -3 -3 -2 -2 -2 -2 -2 -1 -1 -1 -1 0 1 1 1 1
Height
765 764 763 762 762 760 759 758 759 760 763 764 764 763 765 766 769 772 773 775 775 777 778 779 780 780 780 781 783 784 785 785 787 787 788 787 787 789 789 788 793 792 794
772 763 757 756 755 755 754 753 753 755 755 759 760 760 761 763 764 767 769 771 772 773 774 775 775 776 776 777 778 779 780 779 782 782 785 783 781 782 781 781 785 787 789
777 769 762 757 754 752 751 749 748 750 751 752 756 757 759 759 760 763 765 767 768 769 770 770 770 771 772 771 772 772 773 774 775 776 778 776 774 772 773 771 774 778 782
782 777 772 767 761 756 751 746 745 745 746 749 749 753 754 756 756 759 762 763 764 765 765 765 765 765 765 765 764 765 765 766 766 769 768 770 769 766 767 768 768 767 773
785 782 778 772 765 761 754 747 743 742 742 743 746 748 751 753 754 756 758 760 760 761 761 760 759 759 758 757 757 756 756 757 758 759 763 762 761 759 766 761 762 763 765
787 784 780 773 767 762 756 749 743 738 738 739 741 744 748 751 752 753 755 756 756 756 755 754 752 751 749 748 748 749 749 749 750 751 752 750 752 755 758 758 756 758 759
785 783 780 776 771 763 756 749 744 739 737 737 739 741 744 748 750 751 753 754 754 754 754 751 749 747 742 741 742 741 740 741 742 742 740 742 743 746 748 751 751 753 754
778 779 779 776 772 765 757 751 745 740 739 738 739 738 742 747 748 749 750 751 751 752 752 751 749 746 740 735 735 734 733 734 736 737 737 739 740 743 746 743 747 749 749
779 778 776 775 773 767 760 755 749 745 742 741 739 739 743 746 746 749 750 750 751 750 750 749 747 744 741 736 735 734 732 732 733 735 735 736 737 739 742 743 746 747 744
779 778 776 775 772 768 764 758 754 751 749 746 745 746 747 748 749 751 751 750 749 752 749 747 746 743 739 737 734 732 732 732 733 733 733 734 734 736 737 738 739 739 739
775 776 775 775 773 771 767 764 760 757 754 752 752 751 751 751 754 754 753 752 751 750 750 749 747 743 740 738 736 735 730 732 731 730 730 731 731 730 731 731 731 732 731
771 774 774 774 774 771 767 765 762 760 759 757 757 756 755 755 753 753 754 756 756 753 752 750 747 744 744 739 738 735 735 734 732 730 730 729 729 728 727 727 726 725 724
770 771 771 770 770 770 769 768 766 764 762 760 760 759 759 759 762 762 761 760 758 755 753 751 749 747 744 743 740 737 736 734 732 731 730 730 728 727 725 723 724 723 722
768 771 770 769 769 769 769 768 767 767 765 763 762 762 763 764 765 763 761 759 756 754 752 750 749 747 745 743 740 739 737 735 733 732 731 730 729 726 723 722 721 718 716
763 765 767 768 769 768 768 767 767 767 768 767 766 766 766 765 764 762 760 758 756 754 752 750 748 746 744 743 741 740 737 735 732 731 729 726 724 722 721 720 717 715 714
757 760 763 765 766 767 768 768 768 768 768 768 767 766 765 764 763 762 760 758 756 753 751 748 746 744 744 742 740 738 735 733 730 727 724 722 720 718 717 715 714 714 711
752 757 761 764 765 766 767 768 769 769 768 767 766 765 763 762 761 760 759 757 756 753 751 749 747 745 743 740 739 737 735 732 729 727 724 720 718 715 712 710 707 706 704
747 751 755 759 761 763 764 765 766 766 766 765 764 763 762 761 759 759 758 757 755 752 750 747 745 743 741 739 737 734 731 728 726 723 721 718 714 712 709 706 701 697 695
742 747 752 756 759 762 764 765 765 765 765 764 763 762 761 760 759 758 756 754 752 749 747 745 742 739 737 734 732 730 726 724 721 719 717 714 709 706 705 701 695 691 687
741 746 750 754 757 759 761 762 762 762 763 763 762 761 760 759 757 755 754 752 750 747 744 741 738 735 734 733 731 729 726 723 719 714 710 708 706 703 700 696 692 686 681
740 744 747 750 752 755 757 758 759 760 760 760 759 759 757 756 754 752 750 749 747 744 741 739 737 734 733 730 729 729 726 721 716 712 707 702 700 695 692 689 684 678 673
739 741 744 746 748 751 754 756 758 759 759 759 758 757 756 754 753 752 749 748 745 743 740 737 734 733 731 729 727 724 721 716 713 707 701 696 692 688 683 679 674 669 665
736 738 741 744 748 750 752 753 755 756 757 758 757 757 756 755 753 751 749 747 745 742 739 736 732 728 727 726 723 720 715 711 705 699 694 688 683 677 671 668 664 661 657
730 734 738 740 743 745 747 748 751 753 755 756 755 754 753 752 751 749 747 746 744 742 739 736 732 728 723 720 717 712 707 702 697 691 685 680 674 667 662 659 655 652 648
724 728 731 734 737 740 743 746 747 749 750 751 750 749 748 748 747 746 745 744 742 739 736 735 733 729 725 721 718 714 707 700 695 687 680 674 669 661 656 652 648 644 641
718 721 724 728 733 737 740 743 745 746 747 747 747 747 746 745 745 743 741 741 740 739 736 731 729 727 724 720 716 711 703 698 692 685 681 675 668 662 654 648 643 639 635
Wind_Speed
21 23 22 21 21 21 23 24 24 24 22 20 20 19 20 18 18 17 16 15 15 16 16 18 18 18 18 23 23 22 22 22 23 16 21 28 30 28 25 25 24 21 20
21 24 21 19 18 21 22 23 24 24 23 22 20 22 18 19 17 15 14 14 14 15 16 18 19 19 19 21 25 25 23 23 25 18 20 6 14 27 30 26 24 26 25
17 19 20 19 17 17 18 21 22 22 22 22 21 17 19 12 11 11 12 12 13 15 16 18 20 21 22 24 25 25 26 24 21 30 15 2 5 9 21 30 31 26 30
15 15 17 19 18 20 18 14 18 20 21 20 20 19 17 16 14 12 10 10 11 14 18 20 23 26 26 26 28 29 30 27 25 20 35 35 14 3 5 11 24 26 27
13 14 17 20 19 17 18 17 13 17 20 18 21 19 19 14 11 9 9 11 13 15 20 23 26 28 29 31 32 30 30 29 28 28 20 25 21 19 4 4 5 14 27
12 13 19 23 24 21 17 14 13 12 17 19 20 18 17 14 11 10 10 10 11 14 13 16 23 28 31 31 30 30 31 30 29 31 32 28 19 17 15 9 9 8 13
8 9 12 19 22 22 20 18 15 5 13 15 18 19 15 13 12 11 7 5 2 5 10 13 13 15 23 31 30 30 30 32 30 27 27 28 23 23 22 21 12 8 15
7 9 8 10 18 22 22 19 16 13 12 1 6 7 8 12 7 6 4 4 2 3 7 9 11 13 15 9 17 17 20 23 25 26 23 21 19 22 21 16 7 3 4
10 10 11 14 16 18 21 20 17 16 15 13 13 10 7 7 8 7 6 3 1 3 4 6 9 10 8 9 9 10 12 18 12 14 18 17 21 21 24 23 20 16 11
7 8 9 12 13 14 17 20 20 19 17 16 14 14 12 11 8 5 5 5 5 4 6 7 10 10 10 9 8 5 4 9 13 16 19 20 20 22 23 24 23 24 24
6 5 7 10 11 11 14 14 15 14 19 19 17 16 15 14 11 10 9 9 7 9 8 9 11 12 12 12 11 10 9 9 8 7 8 11 17 22 25 28 28 27 27
6 5 5 6 8 9 11 12 12 14 14 14 15 17 17 14 15 14 9 8 6 7 10 10 9 11 12 13 13 14 14 14 14 15 18 18 19 18 17 16 16 17 22
6 6 4 5 7 7 7 9 11 11 11 10 10 12 10 9 7 5 6 7 7 7 8 9 10 11 12 11 12 14 14 14 15 15 15 16 16 16 16 18 18 19 22
7 4 5 4 6 5 5 6 7 9 9 9 10 10 10 8 6 6 7 9 10 9 9 10 10 10 10 9 14 14 15 14 14 15 15 16 16 16 15 16 18 19 20
8 7 5 4 3 4 3 4 5 5 5 5 6 6 5 5 6 7 8 8 8 9 9 10 10 11 11 10 15 15 15 15 16 16 16 16 16 21 22 21 18 19 20
9 7 7 6 5 3 1 1 2 3 4 4 5 5 6 6 7 7 8 9 9 9 10 11 11 12 10 13 16 17 19 19 20 20 20 19 20 18 20 21 21 21 22
8 8 7 7 4 3 1 1 2 3 4 5 6 7 8 8 9 9 10 10 11 10 10 9 10 10 10 10 13 15 16 16 17 19 20 21 21 24 24 25 25 25 23
9 9 9 9 8 7 5 3 1 1 3 4 5 6 7 8 8 8 9 9 9 10 9 9 9 9 9 9 11 15 13 15 17 18 20 20 22 23 25 27 29 27 25
9 10 10 9 7 6 4 3 2 3 4 5 6 6 6 7 7 8 8 9 10 10 10 9 9 10 11 13 17 20 21 20 22 20 21 24 26 27 28 29 30 31 32
8 9 9 9 8 8 7 5 4 5 6 6 7 8 8 9 9 9 9 9 10 11 12 12 12 13 14 15 17 21 20 21 23 25 24 23 26 27 27 29 29 29 30
12 12 12 12 10 9 8 7 6 7 6 6 8 9 9 9 9 8 9 9 11 12 13 12 12 11 13 16 18 19 19 19 21 24 26 26 28 30 30 31 32 31 33
13 14 13 13 12 11 10 8 8 7 7 7 8 9 9 8 8 9 9 9 9 10 11 13 13 12 13 15 19 21 22 25 24 25 28 29 31 35 38 38 34 34 32
15 15 15 13 11 10 9 8 8 7 7 7 8 10 10 10 10 10 10 10 9 10 11 12 15 18 17 19 19 22 26 28 30 29 31 36 37 36 34 32 30 28 27
16 16 15 14 14 13 12 11 8 7 7 7 8 7 8 9 10 10 9 9 10 11 12 14 15 18 23 24 27 31 31 33 33 33 34 33 34 32 30 29 26 23 23
17 18 17 16 15 14 13 11 10 8 7 6 7 7 6 7 8 8 9 10 9 8 12 13 15 17 18 22 27 28 31 32 34 37 30 27 26 25 23 22 23 23 22
18 18 18 16 14 13 12 10 9 8 7 8 8 8 7 8 8 8 10 8 10 13 12 10 11 18 19 21 24 28 29 30 28 26 22 22 22 23 23 20 20 20 19
Wind_Direction
311 299 291 282 275 271 264 253 249 240 237 233 231 217 223 221 226 231 237 240 242 246 247 249 253 255 249 254 255 249 242 239 234 234 246 235 236 245 254 249 244 246 257
327 318 304 293 272 270 267 252 243 241 233 233 230 228 231 227 224 224 232 240 248 250 250 253 256 257 254 255 253 247 249 239 231 229 247 247 237 237 235 231 236 241 234
342 347 349 333 311 284 270 257 245 240 236 225 233 232 230 227 207 219 232 240 247 253 253 256 260 261 261 257 251 246 238 245 234 225 228 212 226 227 224 225 224 234 235
353 346 349 346 345 338 340 285 254 241 235 236 221 229 219 219 220 226 238 247 254 265 270 268 263 259 257 254 251 249 242 239 241 237 228 234 248 219 236 221 223 226 238
356 346 352 345 350 342 333 316 309 242 233 224 230 216 226 232 237 238 249 262 274 279 283 276 269 264 260 256 254 252 245 241 238 233 233 227 235 226 234 216 204 221 227
350 358 355 358 349 346 345 333 320 292 235 220 216 215 219 222 229 236 251 270 286 300 305 297 279 266 265 260 257 258 256 248 244 243 238 228 218 221 225 235 244 240 233
335 352 356 353 346 343 354 354 343 302 257 226 215 214 215 227 231 235 246 259 273 305 313 329 337 315 280 261 260 259 255 251 244 250 237 225 226 222 223 232 237 234 246
334 339 343 358 344 348 358 2 3 25 40 88 200 192 209 232 193 183 168 185 215 311 326 322 323 327 343 301 268 257 248 232 239 247 252 228 227 229 240 218 209 253 243
342 346 359 359 343 348 353 4 21 35 43 58 75 92 111 120 121 133 135 126 112 347 328 331 340 342 331 350 298 284 257 238 242 257 250 245 247 255 256 259 247 248 259
351 349 2 347 348 354 354 10 28 39 45 63 74 75 79 89 90 94 95 74 56 359 352 347 347 347 356 356 348 349 310 273 277 276 268 257 250 249 248 250 244 236 242
338 355 355 348 356 3 1 19 28 37 46 55 60 69 73 74 64 54 43 30 19 7 360 359 351 351 351 351 348 341 348 335 327 332 337 291 265 259 256 256 251 248 244
327 2 355 337 346 359 8 22 33 40 42 44 52 54 51 53 40 39 16 13 8 2 357 356 2 5 346 2 359 359 352 343 334 327 317 308 308 308 315 323 323 305 276
301 326 334 336 355 16 23 30 30 31 42 47 51 53 50 56 48 23 14 6 4 5 1 356 356 352 353 353 358 355 346 341 337 333 328 320 321 314 313 311 302 303 301
264 274 299 321 337 352 18 29 39 40 34 38 39 36 31 28 19 12 7 2 0 1 360 358 355 354 352 1 357 346 339 333 323 317 311 306 304 307 311 309 304 301 295
229 247 247 235 263 306 344 14 36 43 45 51 50 40 23 16 9 7 4 359 356 352 349 346 349 352 356 360 353 345 335 327 320 314 308 307 304 300 302 300 305 309 303
232 225 228 231 231 232 252 339 17 14 16 23 26 18 12 9 4 356 351 346 343 343 343 343 346 345 341 339 347 344 336 329 325 323 320 317 313 310 306 302 300 294 300
230 218 217 221 220 215 241 315 346 349 356 359 358 358 358 356 354 347 342 339 332 328 328 327 331 329 327 331 340 334 325 316 315 312 313 315 310 309 307 305 299 295 292
218 212 204 196 193 190 193 193 212 305 334 339 339 340 341 336 331 325 318 314 315 317 319 319 321 323 330 336 336 335 332 325 318 316 312 307 306 305 307 305 301 299 293
213 209 202 198 186 194 198 214 254 286 300 309 317 316 311 308 304 306 311 315 317 318 318 316 320 330 338 348 347 348 341 332 324 318 315 309 306 306 303 302 301 297 293
204 191 185 185 193 198 199 208 231 257 278 288 299 302 300 302 302 309 314 315 315 313 319 326 337 342 338 342 344 344 335 322 318 317 313 305 297 296 296 294 290 287 287
194 186 185 194 202 197 201 219 237 251 266 274 286 293 293 294 293 300 308 312 315 320 324 327 333 337 337 337 335 331 325 320 316 310 307 305 302 298 293 290 287 282 288
190 191 193 204 202 199 205 224 244 259 267 279 286 291 295 294 295 303 307 310 312 318 322 327 330 330 331 329 328 329 329 326 320 309 304 301 299 295 293 290 286 285 288
203 198 205 205 203 204 209 224 243 245 257 274 290 302 305 305 306 307 309 312 312 318 322 327 328 327 332 328 326 326 326 326 323 316 310 307 302 296 289 280 279 283 284
208 205 206 206 204 204 207 218 227 229 247 274 294 305 308 310 310 310 307 309 315 321 326 324 321 324 326 330 332 330 328 326 324 320 315 309 307 302 292 288 283 278 280
205 202 204 205 207 203 208 213 215 217 236 256 270 277 285 290 298 300 305 304 305 312 312 313 315 314 315 319 320 321 321 321 320 319 316 312 317 307 293 286 282 282 283
204 200 200 196 200 200 204 209 212 214 223 247 259 269 278 285 286 294 302 298 293 305 303 302 314 314 311 318 320 320 322 324 326 323 317 314 314 316 307 292 285 289 289